Torna al catalogo

STARLINK-32496

AttivoComunicazioniVLEO
NORAD 62051·PAYLOAD·🇺🇸 United States

Lanciato Nov 21, 2024 da Cape Canaveral Space Force Station

Loading…

Prossimi Passaggi (prossime 24 ore)

TLE

AggiornatoSource: CelesTrak SupGP

Epoca: Sep 14, 2026, 22:20 UTC

1 62051C 24216V   26257.93104167  .00031200  00000+0  11302-2 0  2573
2 62051  42.9993 275.0169 0001456 266.6870  24.0649 15.27560647    12

Traccia STARLINK-32496 in tempo reale con AllMySat

Download on the App Store